Regional Weather Roundup
Issued by NWS

Home | Current Version | Previous Version | Text Only | Print | Product List | Glossary On
Versions: 1 2 3 4 5 6 7 8 9 10 11 12 13 14 15 16 17 18 19 20 21 22 23 24 25 26 27 28 29 30 31 32 33 34 35 36 37 38 39 40 41 42 43 44 45 46 47 48 49 50
000
ASUS46 KSEW 300610
RWRWA

WASHINGTON REGIONAL WEATHER ROUNDUP
NATIONAL WEATHER SERVICE SEATTLE WA
1100 PM PDT SAT AUG 29 2015

NOTE:"FAIR" INDICATES FEW OR NO CLOUDS BELOW 12,000 FEET WITH NO
SIGNIFICANT WEATHER AND/OR OBSTRUCTIONS TO VISIBILITY.

WAZ505-507>509-300700-
SEATTLE, TACOMA, EVERETT, AND VICINITY

CITY           SKY/WX    TMP DP  RH WIND       PRES   REMARKS
EVERETT        CLOUDY    57  53  86 S16G25    29.75F
                                      6HR PCP:  0.39;

BOEING FIELD   RAIN      60  50  70 S9G16     29.77F
6HR MIN TEMP:  60; 6HR MAX TEMP:  74;

RENTON         RAIN      59  57  93 S7        29.78S FOG
6HR MIN TEMP:  59; 6HR MAX TEMP:  71; 6HR PCP:  0.41;

SEATAC AIRPORT RAIN      57  56  96 S10       29.78S FOG
6HR MIN TEMP:  57; 6HR MAX TEMP:  69; 6HR PCP:  0.40;

JBLM-MCCHORD   LGT RAIN  57  57 100 SW5       29.77F
6HR MIN TEMP:  57; 6HR MAX TEMP:  69; 6HR PCP:  0.32;

PUYALLUP       LGT RAIN  57  57 100 CALM      29.78F
BREMERTON      CLOUDY    55  55 100 S8        29.79S
6HR MIN TEMP:  55; 6HR MAX TEMP:  64; 6HR PCP:  0.87;

JBLM-FT LEWIS  LGT RAIN  57  57 100 S3        29.77F
6HR MIN TEMP:  57; 6HR MAX TEMP:  69; 6HR PCP:  0.24;

TACOMA NARROWS LGT RAIN  56  55  97 S5        29.78S FOG
6HR MIN TEMP:  56; 6HR MAX TEMP:  70; 6HR PCP:  0.48;

$$

WAZ001-503-506-510-514-515-300700-
NORTH INTERIOR

CITY           SKY/WX    TMP DP  RH WIND       PRES   REMARKS
BELLINGHAM     CLOUDY    61  56  83 S10G20    29.72S
6HR MIN TEMP:  61; 6HR MAX TEMP:  68; 6HR PCP:  0.01;

FRIDAY HARBOR  CLOUDY    56  54  93 SE3       29.72S
6HR MIN TEMP:  55; 6HR MAX TEMP:  65; 6HR PCP: TRACE;

EASTSOUND      CLOUDY    59  57  94 S9        29.70S
PORT ANGELES   CLOUDY    55  54  96 CALM      29.72S
6HR MIN TEMP:  55; 6HR MAX TEMP:  64; 6HR PCP:  0.05;

PORT TOWNSEND  MOCLDY    57  55  94 SE5       29.70S
NAS WHIDBEY    CLOUDY    58  56  93 SE9       29.76S
6HR MIN TEMP:  58; 6HR MAX TEMP:  69; 6HR PCP:  0.01;

ARLINGTON      NOT AVBL
BURLINGTON     CLOUDY    59  57  94 SE6G13    29.73F
$$

WAZ020-022-039-040-504-511-512-300700-
SOUTHWEST INTERIOR

CITY           SKY/WX    TMP DP  RH WIND       PRES   REMARKS
SHELTON        LGT RAIN  56  54  93 SW5       29.76R
6HR MIN TEMP:  56; 6HR MAX TEMP:  65; 6HR PCP:  0.63;

OLYMPIA        HVY RAIN  56  54  93 W5        29.79R FOG
6HR MIN TEMP:  56; 6HR MAX TEMP:  68; 6HR PCP:  0.64;

CHEHALIS       CLOUDY    59  59 100 CALM      29.80R FOG
KELSO          NOT AVBL
VANCOUVER      CLOUDY    67  55  65 S8G17     29.81F
6HR MIN TEMP:  67; 6HR MAX TEMP:  73; 6HR PCP:  0.02;

SCAPPOOSE, OR  LGT RAIN  65  56  72 VRB6      29.80S
6HR MIN TEMP:  64; 6HR MAX TEMP:  74; 6HR PCP:  0.01;

PORTLAND, OR   CLOUDY    67  56  67 S15       29.81F
6HR MIN TEMP:  67; 6HR MAX TEMP:  73; 6HR PCP: TRACE;

$$

WAZ021-516-517-300700-
WASHINGTON COAST

CITY           SKY/WX    TMP DP  RH WIND       PRES   REMARKS
FORKS          RAIN      57  57 100 S6        29.71F FOG
6HR MIN TEMP:  57; 6HR MAX TEMP:  61; 6HR PCP:  0.34;

HOQUIAM        CLOUDY    59  55  87 S15       29.77R
6HR MIN TEMP:  58; 6HR MAX TEMP:  63; 6HR PCP:  0.22;

ASTORIA, OR    CLOUDY    58  56  93 S12       29.78F
6HR MIN TEMP:  57; 6HR MAX TEMP:  65; 6HR PCP:  0.60;

$$

WAZ019-023-024-040-518-519-300700-
CASCADE MOUNTAINS AND COLUMBIA GORGE

CITY           SKY/WX    TMP DP  RH WIND       PRES   REMARKS
TROUTDALE, OR  CLOUDY    65  56  72 SE8       29.84S
6HR MIN TEMP:  65; 6HR MAX TEMP:  73; 6HR PCP: TRACE;

THE DALLES, OR MOCLDY    65  55  70 NW8       29.81F
6HR MIN TEMP:  64; 6HR MAX TEMP:  75;

$$

WAZ026-027-041>044-520-521-300700-
EAST SLOPES

CITY           SKY/WX    TMP DP  RH WIND       PRES   REMARKS
OMAK           PTCLDY    65  40  39 S9        29.71F
6HR MIN TEMP:  64; 6HR MAX TEMP:  81;

WENATCHEE      PTCLDY    68  44  42 VRB5      29.72F
6HR MIN TEMP:  65; 6HR MAX TEMP:  79;

ELLENSBURG     PTCLDY    59  43  55 CALM      29.77F
6HR MIN TEMP:  59; 6HR MAX TEMP:  77;

YAKIMA         PTCLDY    64  49  57 S14       29.78F
6HR MIN TEMP:  64; 6HR MAX TEMP:  76;

$$

WAZ028-034-035-300700-
COLUMBIA BASIN

CITY           SKY/WX    TMP DP  RH WIND       PRES   REMARKS
EPHRATA        PTCLDY    61  49  64 SW9       29.76F
6HR MIN TEMP:  61; 6HR MAX TEMP:  76;

MOSES LAKE     CLEAR     64  49  57 S10       29.77F
6HR MIN TEMP:  64; 6HR MAX TEMP:  74;

PASCO          CLEAR     63  49  60 VRB3      29.82S
6HR MIN TEMP:  61; 6HR MAX TEMP:  83;

HERMISTON, OR  CLEAR     61  47  59 S8        29.82F
6HR MIN TEMP:  61; 6HR MAX TEMP:  81;

$$

WAZ036>038-300700-
NORTHEAST WASHINGTON

CITY           SKY/WX    TMP DP  RH WIND       PRES   REMARKS
SPOKANE GEIGER MOCLDY    60  43  53 SW5       29.83F
6HR MIN TEMP:  60; 6HR MAX TEMP:  75;

SPOKANE FELTS  MOCLDY    62  43  49 CALM      29.83F
6HR MIN TEMP:  62; 6HR MAX TEMP:  77;

FAIRCHILD AFB  PTCLDY    58  43  58 S8        29.83S
6HR MIN TEMP:  58; 6HR MAX TEMP:  72; 6HR PCP: TRACE;

COEURDALENE,ID MOCLDY    63  52  67 S8        29.84F
6HR MIN TEMP:  61; 6HR MAX TEMP:  68;

DEER PARK      PTCLDY    58  44  60 S10       29.83F
6HR MIN TEMP:  58; 6HR MAX TEMP:  72;

$$

WAZ029>033-300700-
SOUTHEAST WASHINGTON

CITY           SKY/WX    TMP DP  RH WIND       PRES   REMARKS
PULLMAN        CLOUDY    58  49  72 CALM      29.91R
6HR MIN TEMP:  58; 6HR MAX TEMP:  68; 6HR PCP: TRACE;

LEWISTON, ID   NOT AVBL
WALLA WALLA    PTCLDY    69  44  40 S9        29.85R
6HR MIN TEMP:  68; 6HR MAX TEMP:  82;

PENDLETON, OR  CLEAR     60  43  53 SE6       29.85F
6HR MIN TEMP:  57; 6HR MAX TEMP:  78;

$$



USA.gov is the U.S. government's official web portal to all federal, state and local government web resources and services.